Location: Coupvray
(48.8929°N, 2.7967°E)
Time: 23:14:01
(UTC+00:00)

Cosmos 1241 Rocket - Pass Details

Date: 05 November 2020
Orbit: 929 x 1018 km, 65.8° (Epoch: 28 November)

Event Time Altitude Azimuth Distance (km) Brightness Sun altitude
Rises 19:02:49 0° 303° (WNW) 3,711 8.5 -26.8°
Reaches altitude 10° 19:06:23 10° 323° (NW) 2,778 7.4 -27.4°
Maximum altitude 19:10:40 18° 4° (N) 2,269 6.4 -28.1°
Enters shadow 19:12:02 17° 19° (NNE) 2,332 6.3 -28.3°
